This demonstration page uses our WeatherBlox Daily Observations layout. Learn more.

Left ArrowRight Arrow

39.01783, -85.05884

Hourly Observations for February 8, 2021

Temp ( °F °C ) Dew Point ( °F °C ) Humidity (%) Winds ( mph kmh ) Pressure ( in mb ) Visibility ( mi km ) Precip ( " mm )
12:52 am 00:52 Mostly Cloudy 16 -8.9 3 -16.1 56 56 ENE 5 7 30.30 1026 10 16 0.00 0.00
1:52 am 01:52 Cloudy 16 -8.9 5 -15 62 62 E 7 11 30.30 1026 10 16 0.00 0.00
2:52 am 02:52 Cloudy 17 -8.3 5 -15 59 59 E 8 13 30.29 1026 10 16 0.00 0.00
3:52 am 03:52 Cloudy 17 -8.3 5 -15 59 59 E 5 7 30.30 1026 10 16 0.00 0.00
4:52 am 04:52 Partly Cloudy 16 -8.9 6 -14.4 65 65 E 6 9 30.30 1026 10 16 0.00 0.00
5:52 am 05:52 Mostly Clear 15 -9.4 6 -14.4 67 67 ESE 7 11 30.29 1026 10 16 0.00 0.00
6:52 am 06:52 Partly Cloudy 16 -8.9 7 -13.9 67 67 E 8 13 30.29 1026 10 16 0.00 0.00
7:52 am 07:52 Mostly Cloudy 16 -8.9 7 -13.9 67 67 E 5 7 30.32 1027 10 16 0.00 0.00
8:52 am 08:52 Cloudy 18 -7.8 7 -13.9 62 62 ENE 6 9 30.34 1027 10 16 0.00 0.00
9:52 am 09:52 Mostly Cloudy 21 -6.1 7 -13.9 54 54 ESE 7 11 30.32 1027 10 16 0.00 0.00
10:52 am 10:52 Mostly Sunny 26 -3.3 9 -12.8 48 48 SE 7 11 30.29 1026 10 16 0.00 0.00
11:52 am 11:52 Mostly Sunny 28 -2.2 10 -12.2 47 47 VRB 3 6 30.28 1025 10 16 0.00 0.00
12:52 pm 12:52 Partly Cloudy 32 0 13 -10.6 45 45 VRB 5 7 30.26 1025 10 16 0.00 0.00
1:52 pm 13:52 Mostly Cloudy 35 1.7 15 -9.4 44 44 S 7 11 30.22 1024 10 16 0.00 0.00
2:52 pm 14:52 Cloudy 35 1.7 15 -9.4 44 44 ESE 3 6 30.20 1023 10 16 0.00 0.00
3:52 pm 15:52 Cloudy 35 1.7 15 -9.4 44 44 NNE 3 6 30.20 1023 10 16 0.00 0.00
4:52 pm 16:52 Cloudy 35 1.7 14 -10 42 42 NNE 9 15 30.18 1022 10 16 0.00 0.00
5:52 pm 17:52 Cloudy 34 1.1 15 -9.4 46 46 N 9 15 30.19 1022 10 16 0.00 0.00
6:52 pm 18:52 Cloudy with Light Snow 32 0 15 -9.4 50 50 N 9 15 30.20 1023 6 10 0.00 0.00
7:52 pm 19:52 Cloudy with Light Snow 30 -1.1 20 -6.7 66 66 N 8 13 30.22 1023 3 5 0.01 0.25
7:58 pm 19:58 Cloudy with Light Snow 30 -1.1 21 -6.1 69 69 N 6 9 30.24 1024 2 3 0.00 0.00
8:03 pm 20:03 Cloudy with Light Snow 30 -1.1 21 -6.1 69 69 N 7 11 30.24 1024 2 2 0.00 0.00
8:33 pm 20:33 Cloudy with Light Snow 28 -2.2 23 -5 81 81 N 9 15 30.24 1024 2 3 0.02 0.51
8:44 pm 20:44 Cloudy with Light Snow 28 -2.2 24 -4.4 85 85 NNE 9 15 30.23 1024 2 2 0.02 0.51
8:52 pm 20:52 Cloudy with Light Snow 28 -2.2 24 -4.4 85 85 NNE 10 17 30.21 1023 1 2 0.02 0.51
8:59 pm 20:59 Mostly Cloudy with Light Snow 28 -2.2 24 -4.4 85 85 NNE 8 13 30.23 1024 1 1 0.01 0.25
9:08 pm 21:08 Cloudy with Light Snow 27 -2.8 24 -4.4 89 89 N 6 9 30.24 1024 1 2 0.01 0.25
9:26 pm 21:26 Cloudy with Light Snow 27 -2.8 25 -3.9 92 92 N 6 9 30.25 1024 1 2 0.02 0.51
9:52 pm 21:52 Cloudy with Light Snow 27 -2.8 24 -4.4 89 89 N 7 11 30.22 1023 2 2 0.02 0.51
10:09 pm 22:09 Cloudy with Light Snow 27 -2.8 25 -3.9 92 92 N 3 6 30.25 1024 1 1 0.01 0.25
10:18 pm 22:18 Mostly Cloudy with Snow 27 -2.8 25 -3.9 92 92 NNW 5 7 30.26 1025 1 1 0.02 0.51
10:52 pm 22:52 Mostly Cloudy with Heavy Snow 27 -2.8 25 -3.9 92 92 N 6 9 30.21 1023 0 0 0.07 1.78
11:17 pm 23:17 Mostly Cloudy with Heavy Snow 27 -2.8 25 -3.9 92 92 N 3 6 30.26 1025 0 0 0.09 2.29
11:52 pm 23:52 Mostly Cloudy with Heavy Snow 27 -2.8 24 -4.4 89 89 N 6 9 30.21 1023 0 0 0.18 4.57

Powered by AerisWeather